Location: Newark
(52.3735°N, 16.9806°E)
Time: 00:42:09
(UTC+00:00)

TIGRISAT - Pass Details

Date: 27 November 2022
Orbit: 601 x 684 km, 97.7° (Epoch: 29 January)

Event Time Altitude Azimuth Distance (km) Brightness Sun altitude
Rises 05:32:53 0° 223° (SW) 2,875 ? -8.9°
Reaches altitude 10° 05:36:46 10° 259° (W) 1,997 ? -8.3°
Maximum altitude 05:38:01 11° 276° (W) 1,934 ? -8.2°
Enters shadow 05:39:17 10° 293° (WNW) 2,014 ? -8.0°
